Dashboard

GC4VWGJ - VVV-Laakdal5

by VVV-Laakdal

published: Mon, 13 Jan 2014 12:41:47 pm

Certitude Solution



Puzzle stats
1269 Woo-Hoo!
9926 D'Oh!
Latest activity:
Wed, 28 Dec 2016
Note that some of those attempts may have been anonymous.


You can subscribe to an RSS feed for:
 this puzzle
 VVV-Laakdal's puzzles
 puzzles in N51 E004 quadrangle
 puzzles in Antwerpen
 all puzzles

Your geocaching name is unknown, please sign in to identify yourself. How does it work?

Puzzle solvers, you can certify your solution here:

(exact coordinates required)
  Stay anonymous

Certified solvers

RankUserTime (Brussels, Europe)
1.tinrafMon, 13 Jan 2014 1:40:39 pm
2.GeroMinosMon, 13 Jan 2014 3:46:04 pm
3.Cocquyt IdesMon, 13 Jan 2014 5:02:38 pm
4.waldogMon, 13 Jan 2014 5:07:38 pm
5.BelgiumJeepersMon, 13 Jan 2014 5:32:08 pm
6.De 5 LinievosMon, 13 Jan 2014 5:42:10 pm
7.MREBMon, 13 Jan 2014 6:27:54 pm
8.ZwuzzeMon, 13 Jan 2014 6:31:52 pm
9.ZwuzzeMon, 13 Jan 2014 6:31:52 pm
10.exkramMon, 13 Jan 2014 7:03:13 pm
11.JambofredjeMon, 13 Jan 2014 7:11:52 pm
12.rommarMon, 13 Jan 2014 7:35:11 pm
13.ErannMon, 13 Jan 2014 7:41:37 pm
14.de van nassautjesMon, 13 Jan 2014 7:58:48 pm
15.The Usual SuspectzMon, 13 Jan 2014 8:05:36 pm
16.dagger38Mon, 13 Jan 2014 8:05:57 pm
17.Het_fm-duoMon, 13 Jan 2014 8:07:23 pm
18.gabberjasperMon, 13 Jan 2014 8:52:38 pm
19.aarciaMon, 13 Jan 2014 9:04:18 pm
20.Roberto 01Mon, 13 Jan 2014 9:27:57 pm
21.Fisty3Mon, 13 Jan 2014 9:48:18 pm
22.Gunter67Mon, 13 Jan 2014 9:50:22 pm
23.lankatrasMon, 13 Jan 2014 9:59:47 pm
24.BleukeMon, 13 Jan 2014 10:19:00 pm
25.badmintonnersMon, 13 Jan 2014 10:35:43 pm
26.SteenezelMon, 13 Jan 2014 10:40:54 pm
27.nickipelMon, 13 Jan 2014 10:43:31 pm
28.1TEAMMon, 13 Jan 2014 10:45:38 pm
29.Ricky50Mon, 13 Jan 2014 10:52:36 pm
30.KeekjeMon, 13 Jan 2014 10:52:40 pm
31.Doogie.beMon, 13 Jan 2014 11:48:21 pm
32.Fox64Tue, 14 Jan 2014 8:49:42 am
33.NylimbTue, 14 Jan 2014 11:06:16 am
34.pinarello43Tue, 14 Jan 2014 11:31:14 am
35.Team GeweiTue, 14 Jan 2014 3:45:30 pm
36.jeanke53Tue, 14 Jan 2014 4:16:22 pm
37.hincapieTue, 14 Jan 2014 4:29:24 pm
38.GOTCHAYOSETue, 14 Jan 2014 4:36:34 pm
39.The BatTue, 14 Jan 2014 6:09:10 pm
40.palesTue, 14 Jan 2014 7:09:00 pm
41.MycenaTue, 14 Jan 2014 7:45:51 pm
42.gerymasTue, 14 Jan 2014 7:56:52 pm
43.cactusboy99Tue, 14 Jan 2014 7:58:40 pm
44.rudy86Tue, 14 Jan 2014 8:15:26 pm
45.MiezekeTue, 14 Jan 2014 8:17:02 pm
46.DwiggerTue, 14 Jan 2014 8:36:14 pm
47.jurgelleTue, 14 Jan 2014 9:31:37 pm
48.BirreTue, 14 Jan 2014 10:27:19 pm
49.JOTHBTue, 14 Jan 2014 11:04:22 pm
50.JoanyoTue, 14 Jan 2014 11:13:09 pm
51.Davy&YentlWed, 15 Jan 2014 12:41:56 am
52.brestWed, 15 Jan 2014 3:19:21 am
53.GAACOWed, 15 Jan 2014 4:59:34 am
54.Joe UltraWed, 15 Jan 2014 6:51:53 am
55.sparadrap + tibecomWed, 15 Jan 2014 7:49:56 am
56.wout147Wed, 15 Jan 2014 10:35:13 am
57.ChristyvhWed, 15 Jan 2014 11:24:57 am
58.KaRuKoWed, 15 Jan 2014 11:38:59 am
59.de achterlichtjesWed, 15 Jan 2014 12:45:05 pm
60.mutseWed, 15 Jan 2014 2:09:25 pm
61.KLUPPELWed, 15 Jan 2014 2:40:16 pm
62.rabbitsWed, 15 Jan 2014 5:34:52 pm
63.mercator80Wed, 15 Jan 2014 6:10:43 pm
64.AlcecWed, 15 Jan 2014 6:13:53 pm
65.jv11096Wed, 15 Jan 2014 6:25:38 pm
66.A.A.A.kesWed, 15 Jan 2014 6:38:17 pm
67.zilumopWed, 15 Jan 2014 8:28:57 pm
68.spiritsWed, 15 Jan 2014 8:47:39 pm
69.immerthoeveWed, 15 Jan 2014 9:16:53 pm
70.jos4711Wed, 15 Jan 2014 10:03:52 pm
71.NenjitsWed, 15 Jan 2014 10:11:07 pm
72.NaturepointWed, 15 Jan 2014 11:38:47 pm
73.denjakkeThu, 16 Jan 2014 12:34:23 am
74.TekkelThu, 16 Jan 2014 10:40:53 am
75.Bitte ein BitThu, 16 Jan 2014 11:33:00 am
76.xedionThu, 16 Jan 2014 2:36:29 pm
77.VindenPuntNLThu, 16 Jan 2014 3:35:06 pm
78.tfxerThu, 16 Jan 2014 4:29:29 pm
79.jackie vandenberkThu, 16 Jan 2014 5:55:40 pm
80.machpatThu, 16 Jan 2014 6:18:15 pm
81.WaaslanderThu, 16 Jan 2014 7:12:38 pm
82.tootwoopThu, 16 Jan 2014 7:59:37 pm
83.BalthazaarThu, 16 Jan 2014 8:55:04 pm
84.XistanceThu, 16 Jan 2014 10:30:49 pm
85.bobo bonbonThu, 16 Jan 2014 10:31:18 pm
86.pietSchaftThu, 16 Jan 2014 10:58:14 pm
87.purpowFri, 17 Jan 2014 12:57:35 am
88.Patkrimson2Fri, 17 Jan 2014 9:41:16 am
89.RHCVFri, 17 Jan 2014 9:50:25 am
90.Geo-shuttleFri, 17 Jan 2014 9:51:14 am
91.Cableguy666Fri, 17 Jan 2014 9:53:02 am
92.heksemie anirca62Fri, 17 Jan 2014 11:34:10 am
93.YellowBlackArmyFri, 17 Jan 2014 1:12:57 pm
94.RUYAFri, 17 Jan 2014 2:26:35 pm
95.TheDutchLetterboxersFri, 17 Jan 2014 2:41:54 pm
96.springerkesFri, 17 Jan 2014 3:46:34 pm
97.Familie HendrikxFri, 17 Jan 2014 5:39:06 pm
98.janvandevisFri, 17 Jan 2014 6:37:53 pm
99.Kel&StefFri, 17 Jan 2014 8:26:55 pm
100.Team VerostefFri, 17 Jan 2014 10:40:00 pm
101.DenardoFri, 17 Jan 2014 11:11:39 pm
102.KnokkertjeFri, 17 Jan 2014 11:47:36 pm
103.tesslooSat, 18 Jan 2014 10:25:12 am
104.Gooz74Sat, 18 Jan 2014 12:40:23 pm
105.GiniroverSat, 18 Jan 2014 1:29:18 pm
106.de-buertjesSat, 18 Jan 2014 5:16:27 pm
107.bahetiSat, 18 Jan 2014 7:12:25 pm
108.Bruges21Sat, 18 Jan 2014 7:41:07 pm
109.S-n-PSat, 18 Jan 2014 8:25:29 pm
110.Team DamenwebSat, 18 Jan 2014 8:58:03 pm
111.yurrie-currieSun, 19 Jan 2014 2:15:27 pm
112.JanHSun, 19 Jan 2014 4:27:28 pm
113.sukySun, 19 Jan 2014 6:54:20 pm
114.djdaanSun, 19 Jan 2014 7:16:30 pm
115.smeugskeSun, 19 Jan 2014 10:20:09 pm
116.peganordSun, 19 Jan 2014 11:24:09 pm
117.Gentse HavikenMon, 20 Jan 2014 6:55:39 am
118.tinobootMon, 20 Jan 2014 9:35:39 am
119.omaenopaMon, 20 Jan 2014 9:40:23 am
120.the 4 beesMon, 20 Jan 2014 10:22:10 am
121.trainfreakMon, 20 Jan 2014 11:33:16 am
122.EluniteMon, 20 Jan 2014 11:33:48 am
123.Dolende DingoMon, 20 Jan 2014 2:06:40 pm
124.geosideMon, 20 Jan 2014 2:18:15 pm
125.robinhoedjeMon, 20 Jan 2014 2:52:43 pm
126.PenJMon, 20 Jan 2014 2:54:09 pm
127.SnuffelkeMon, 20 Jan 2014 3:01:39 pm
128.yellow luppoMon, 20 Jan 2014 5:38:13 pm
129.SeetieMon, 20 Jan 2014 6:03:48 pm
130.TomanelineMon, 20 Jan 2014 8:02:19 pm
131.faith4u2Mon, 20 Jan 2014 9:47:27 pm
132.Geronimo1848Mon, 20 Jan 2014 9:53:10 pm
133.WibokeMon, 20 Jan 2014 10:07:25 pm
134.Davy4444Tue, 21 Jan 2014 9:00:55 am
135.Boris the 3Tue, 21 Jan 2014 11:50:04 am
136.brumilhaagTue, 21 Jan 2014 11:56:57 am
137.Brain and PinkyTue, 21 Jan 2014 6:17:33 pm
138.kurtwuytsTue, 21 Jan 2014 6:45:11 pm
139.Sankofa73Tue, 21 Jan 2014 7:39:01 pm
140.JD85Tue, 21 Jan 2014 9:08:45 pm
141.HEYTSETue, 21 Jan 2014 10:22:15 pm
142.de bosvarkensTue, 21 Jan 2014 10:23:23 pm
143.Geronimo62Tue, 21 Jan 2014 10:52:27 pm
144.Mosterdpot&coTue, 21 Jan 2014 11:27:05 pm
145.BanjojefWed, 22 Jan 2014 12:43:01 am
146.Atos4306Wed, 22 Jan 2014 8:46:34 am
147.well-of-soulsWed, 22 Jan 2014 9:01:21 am
148.on4bamWed, 22 Jan 2014 10:16:27 am
149.lauer10Wed, 22 Jan 2014 4:41:40 pm
150.JP&CDBWed, 22 Jan 2014 11:08:37 pm
151.snobe2002Thu, 23 Jan 2014 8:33:59 am
152.Onslow²Thu, 23 Jan 2014 10:16:30 am
153.suske8Thu, 23 Jan 2014 6:23:44 pm
154.eddyriaThu, 23 Jan 2014 7:30:30 pm
155.nietjeThu, 23 Jan 2014 10:18:28 pm
156.De LeenThu, 23 Jan 2014 10:30:30 pm
157.TanyaBrigittaDodge64Fri, 24 Jan 2014 1:21:15 pm
158.GlanaFri, 24 Jan 2014 8:26:07 pm
159.leonidenFri, 24 Jan 2014 8:31:48 pm
160.RilderaSat, 25 Jan 2014 12:45:40 pm
161.bosamigoSat, 25 Jan 2014 12:52:05 pm
162.GitaristSat, 25 Jan 2014 4:47:21 pm
163.tovenaartejoSat, 25 Jan 2014 7:43:20 pm
164.tigerententeamSun, 26 Jan 2014 2:22:04 pm
165.fourtimesfourSun, 26 Jan 2014 2:25:59 pm
166.Team BOJO NRWSun, 26 Jan 2014 3:02:59 pm
167.CintaKJKSun, 26 Jan 2014 5:06:01 pm
168.GreetLucSun, 26 Jan 2014 5:31:56 pm
169.Stylo & JoskeSun, 26 Jan 2014 7:29:03 pm
170.divemoSun, 26 Jan 2014 8:23:28 pm
171.ynneb ne airSun, 26 Jan 2014 8:52:51 pm
172.ZommetjesSun, 26 Jan 2014 10:00:53 pm
173.quintusbMon, 27 Jan 2014 7:24:05 pm
174.daluwMon, 27 Jan 2014 8:01:49 pm
175.BèrBreeTue, 28 Jan 2014 12:30:57 am
176.CJ-familyTue, 28 Jan 2014 12:49:09 pm
177.le monocleTue, 28 Jan 2014 1:42:20 pm
178.kr017697Tue, 28 Jan 2014 4:49:05 pm
179.dr.jekyl end ms.hydeWed, 29 Jan 2014 8:00:45 pm
180.Boldy47Thu, 30 Jan 2014 12:58:35 pm
181.stanskeThu, 30 Jan 2014 2:15:27 pm
182.gunner4488Fri, 31 Jan 2014 8:46:11 am
183.DiWiDiMaPaFri, 31 Jan 2014 9:01:32 am
184.luc-ingaFri, 31 Jan 2014 10:59:44 am
185.amslouisFri, 31 Jan 2014 12:17:17 pm
186.Sjeik BurgieFri, 31 Jan 2014 1:36:23 pm
187.sjeng57Fri, 31 Jan 2014 10:11:17 pm
188.jornpjeSat, 1 Feb 2014 1:11:34 am
189.malidaSat, 1 Feb 2014 9:34:03 am
190.BetsoSat, 1 Feb 2014 3:35:50 pm
191.3piranja'sSat, 1 Feb 2014 5:04:59 pm
192.SuperBBSat, 1 Feb 2014 9:36:41 pm
193.vanthofSun, 2 Feb 2014 11:01:49 am
194.Iron SixSun, 2 Feb 2014 10:42:51 pm
195.lencomanMon, 3 Feb 2014 7:20:01 pm
196.peggy&johanMon, 3 Feb 2014 10:52:28 pm
197.kwiebusTue, 4 Feb 2014 9:02:00 pm
198.DAN119Tue, 4 Feb 2014 10:21:59 pm
199.schmaal166Tue, 4 Feb 2014 10:34:06 pm
200.dexageWed, 5 Feb 2014 1:32:49 pm
201.reygerWed, 5 Feb 2014 5:20:06 pm
202.DolomitiWed, 5 Feb 2014 6:29:08 pm
203.zandbuddiesThu, 6 Feb 2014 7:53:56 am
204.Basta18Thu, 6 Feb 2014 12:11:43 pm
205.BartenEllenThu, 6 Feb 2014 4:29:00 pm
206.RechmireThu, 6 Feb 2014 8:54:33 pm
207.nash1963Fri, 7 Feb 2014 10:05:04 am
208.DreiDFri, 7 Feb 2014 11:21:28 am
209.jbbobkeSat, 8 Feb 2014 10:10:50 am
210.biermanSat, 8 Feb 2014 4:58:33 pm
211.gar+Sun, 9 Feb 2014 2:30:57 pm
212.rikskevanfikskeSun, 9 Feb 2014 8:53:19 pm
213.J_n_KMon, 10 Feb 2014 5:04:46 pm
214.DDVVJD11Mon, 10 Feb 2014 5:50:27 pm
215.Dr Nick AsTue, 11 Feb 2014 8:42:06 am
216.joris1984Tue, 11 Feb 2014 11:35:38 am
217.Klus43Tue, 11 Feb 2014 10:49:32 pm
218.KRCGenkieWed, 12 Feb 2014 2:31:04 pm
219.Santa-FeeWed, 12 Feb 2014 5:18:35 pm
220.JMD007Thu, 13 Feb 2014 3:45:14 pm
221.qltelThu, 13 Feb 2014 5:43:09 pm
222.jorokaThu, 13 Feb 2014 5:55:59 pm
223.stefgeoThu, 13 Feb 2014 6:46:43 pm
224.-S@m-Thu, 13 Feb 2014 7:52:11 pm
225.Ellen_7Thu, 13 Feb 2014 9:21:40 pm
226.VOSPAMAFri, 14 Feb 2014 11:08:30 am
227.doorienFri, 14 Feb 2014 5:15:30 pm
228.Laroy1Fri, 14 Feb 2014 5:44:44 pm
229.DnA-peltFri, 14 Feb 2014 7:38:20 pm
230.Daems teamSat, 15 Feb 2014 7:37:24 pm
231.voppersSun, 16 Feb 2014 10:12:00 am
232.GNB71Mon, 17 Feb 2014 5:36:23 pm
233.jommekeMon, 17 Feb 2014 10:13:43 pm
234.VogelvluchtenTue, 18 Feb 2014 8:18:40 pm
235.micsepWed, 19 Feb 2014 3:45:05 pm
236.Anja-PeterWed, 19 Feb 2014 7:51:02 pm
237.langvangemertWed, 19 Feb 2014 9:17:29 pm
238.koetje1977Fri, 21 Feb 2014 3:40:46 pm
239.jeannouFri, 21 Feb 2014 8:47:01 pm
240.de2berkjesMon, 24 Feb 2014 2:24:45 pm
241.STONNEMon, 24 Feb 2014 7:46:20 pm
242.ernasprengerMon, 24 Feb 2014 11:55:40 pm
243.De SprotjesWed, 26 Feb 2014 10:36:01 am
244.the groundhopperSat, 1 Mar 2014 1:05:02 am
245.KnausjeSat, 1 Mar 2014 8:09:45 pm
246.BeardiedogSat, 1 Mar 2014 8:45:37 pm
247.kiekerjanSun, 2 Mar 2014 7:38:28 pm
248.HlubTue, 4 Mar 2014 7:44:25 am
249.jerxjacTue, 4 Mar 2014 8:41:31 am
250.DirsonstiemmWed, 5 Mar 2014 3:24:35 pm
251.kazyFri, 7 Mar 2014 9:45:41 pm
252.LanceG07Sat, 8 Mar 2014 3:15:25 pm
253.Felis LeoSat, 8 Mar 2014 6:42:34 pm
254.Evy&DavySun, 9 Mar 2014 7:37:17 am
255.langevanstalSun, 9 Mar 2014 11:32:14 pm
256.Rabbitt HillMon, 10 Mar 2014 7:19:47 pm
257.UnderkofferWed, 12 Mar 2014 8:20:46 pm
258.BraBonWed, 12 Mar 2014 8:46:37 pm
259.VolletjesThu, 13 Mar 2014 12:12:28 am
260.liliremThu, 13 Mar 2014 12:53:05 am
261.dalwalkersFri, 14 Mar 2014 7:13:53 pm
262.Team LoewenjaegerFri, 14 Mar 2014 8:38:35 pm
263.grassprietekeSat, 15 Mar 2014 2:40:20 pm
264.foenjeSun, 16 Mar 2014 10:54:46 am
265.wil&petSun, 16 Mar 2014 9:48:34 pm
266.dieselpompMon, 17 Mar 2014 11:11:58 am
267.StofTeamMon, 17 Mar 2014 11:17:19 am
268.scholtismanMon, 17 Mar 2014 11:50:28 am
269.big gipsyTue, 18 Mar 2014 11:09:07 pm
270.EburonianWed, 19 Mar 2014 3:41:51 pm
271.martini1999Wed, 19 Mar 2014 8:28:23 pm
272.de2smurfenThu, 20 Mar 2014 8:39:10 am
273.NespekesThu, 20 Mar 2014 2:33:52 pm
274.fgrsFri, 21 Mar 2014 2:08:04 pm
275.DavooFri, 21 Mar 2014 8:59:50 pm
276.tommeke47Fri, 21 Mar 2014 11:45:10 pm
277.de jokkeSat, 22 Mar 2014 6:30:45 pm
278.Team Blackfox3Sat, 22 Mar 2014 8:07:53 pm
279.SieMichSun, 23 Mar 2014 1:57:20 pm
280.Urco28Mon, 24 Mar 2014 7:08:43 am
281.Team-RoodkapjeTue, 25 Mar 2014 1:02:05 pm
282.RammelaarsTue, 25 Mar 2014 6:35:30 pm
283.dertien_elfjeTue, 25 Mar 2014 7:25:23 pm
284.niebobWed, 26 Mar 2014 10:04:41 am
285.roelenannekeWed, 26 Mar 2014 1:46:38 pm
286.Edine4geoFri, 28 Mar 2014 1:16:53 pm
287.theraenwilbertSun, 30 Mar 2014 10:56:08 am
288.wscherpsSun, 30 Mar 2014 10:21:56 pm
289.claudlibMon, 31 Mar 2014 12:25:13 pm
290.Ellen65Mon, 31 Mar 2014 4:23:06 pm
291.WijoMon, 31 Mar 2014 9:06:07 pm
292.Alex 1Tue, 1 Apr 2014 8:21:50 pm
293.De SnuffelaarsWed, 2 Apr 2014 11:39:05 am
294.Griml0rdThu, 3 Apr 2014 4:31:28 pm
295.bostrol64Fri, 4 Apr 2014 1:23:05 am
296.DetSniper1C/1GrFri, 4 Apr 2014 5:22:56 pm
297.labelflashMon, 7 Apr 2014 11:48:28 am
298.KoouyeTue, 8 Apr 2014 11:21:51 am
299.columbosTue, 8 Apr 2014 8:50:27 pm
300.Team Rocky BeachTue, 8 Apr 2014 9:38:52 pm
301.cornekWed, 9 Apr 2014 3:27:53 pm
302.gunther_de_laetThu, 10 Apr 2014 8:24:43 pm
303.JurgenKFri, 11 Apr 2014 6:00:48 pm
304.Barco'kesFri, 11 Apr 2014 8:13:53 pm
305.Pecator666Fri, 11 Apr 2014 8:55:36 pm
306.MarludSun, 13 Apr 2014 9:23:22 am
307.canyon lucSun, 13 Apr 2014 3:18:59 pm
308.fade2bladeMon, 14 Apr 2014 10:09:03 pm
309.DeSchakeltjesTue, 15 Apr 2014 9:53:37 am
310.WooD JrTue, 15 Apr 2014 1:41:17 pm
311.de beestjesTue, 15 Apr 2014 9:26:19 pm
312.KimielWed, 16 Apr 2014 6:38:47 pm
313.annhenThu, 17 Apr 2014 8:05:06 pm
314.Dj FvMThu, 17 Apr 2014 8:18:47 pm
315.berepoesThu, 17 Apr 2014 10:05:46 pm
316.DréVanTenkePolaSun, 20 Apr 2014 1:46:18 pm
317.krostiSun, 20 Apr 2014 8:17:44 pm
318.MikaïTue, 22 Apr 2014 9:10:01 pm
319.Tree+SerrWed, 23 Apr 2014 10:50:18 pm
320.wandeltrakkerThu, 24 Apr 2014 10:33:06 am
321.ThAnBoThu, 24 Apr 2014 10:27:08 pm
322.WhiteWolfsFri, 25 Apr 2014 12:14:34 pm
323.Jet&LynnSat, 26 Apr 2014 7:09:38 pm
324.RiensSat, 26 Apr 2014 7:14:26 pm
325.DappersteSun, 27 Apr 2014 2:25:59 pm
326.BrevechtSun, 27 Apr 2014 6:27:09 pm
327.de genietertjesSun, 27 Apr 2014 8:03:57 pm
328.RoedemSun, 27 Apr 2014 9:08:19 pm
329.De Snoopy'sMon, 28 Apr 2014 8:14:41 pm
330.Grokky GroksonMon, 28 Apr 2014 9:16:22 pm
331.DecootjeTue, 29 Apr 2014 3:44:58 pm
332.nostradadaTue, 29 Apr 2014 11:17:34 pm
333.Geostrumpf_TaffyThu, 1 May 2014 11:44:42 pm
334.HAPJ(e)Sat, 3 May 2014 4:50:26 pm
335.ierbelSun, 4 May 2014 6:32:57 pm
336.mlsn1975Mon, 5 May 2014 4:57:24 pm
337.xizatMon, 5 May 2014 11:17:22 pm
338.lunolunoWed, 7 May 2014 12:09:30 am
339.DYINWed, 7 May 2014 2:36:43 pm
340.BierbroederFri, 9 May 2014 9:57:33 am
341.pakwegzesFri, 9 May 2014 9:18:11 pm
342.rit-fanFri, 9 May 2014 11:26:19 pm
343.vandermmeerSat, 10 May 2014 1:16:05 pm
344.marc en lutSat, 10 May 2014 5:17:22 pm
345.tsjaskeSat, 10 May 2014 9:38:43 pm
346.Nonkel WillySat, 10 May 2014 9:42:17 pm
347.AsdonckSun, 11 May 2014 9:56:07 pm
348.flupie007Tue, 13 May 2014 9:35:51 am
349.tufferkesThu, 15 May 2014 6:21:53 pm
350.Marpat5957Thu, 15 May 2014 7:37:05 pm
351.Frederick_TKThu, 15 May 2014 8:59:47 pm
352.MoeliTecMon, 19 May 2014 4:17:28 pm
353.KoidreamTue, 20 May 2014 12:18:32 pm
354.amdeekeTue, 20 May 2014 4:39:18 pm
355.SteffesofnuTue, 20 May 2014 4:49:24 pm
356.Chupke&CoTue, 20 May 2014 8:09:09 pm
357.NAPI :)Tue, 20 May 2014 10:31:36 pm
358.de haantjesWed, 21 May 2014 4:02:12 pm
359.Geo-SabelWed, 21 May 2014 5:38:53 pm
360.dev46Fri, 23 May 2014 10:28:33 am
361.poemie2005Fri, 23 May 2014 3:58:45 pm
362.Old DavisSat, 24 May 2014 10:47:28 am
363.tempovisionSat, 24 May 2014 9:14:56 pm
364.ontdekkersSun, 25 May 2014 5:06:31 am
365.Spinner!Tue, 27 May 2014 9:59:55 pm
366.zonnebaarsThu, 29 May 2014 12:43:27 pm
367.TEAM MOSCORThu, 29 May 2014 1:01:31 pm
368.DenDulleFri, 30 May 2014 1:35:17 pm
369.Fruitmaker67Sun, 1 Jun 2014 8:40:54 am
370.kurt en veroSun, 1 Jun 2014 10:38:58 pm
371.eureka-!Mon, 2 Jun 2014 4:15:21 pm
372.wildplasserTue, 3 Jun 2014 10:58:43 am
373.maneblusser105Tue, 3 Jun 2014 11:52:43 am
374.jojo's03Wed, 4 Jun 2014 9:13:37 pm
375.wewalktoThu, 5 Jun 2014 10:17:01 pm
376.De CashewsFri, 6 Jun 2014 1:04:31 pm
377.Nico MozzerMon, 9 Jun 2014 8:33:46 pm
378.vasco81Wed, 11 Jun 2014 10:53:51 pm
379.dspletsSat, 14 Jun 2014 10:02:20 am
380.mirdjSat, 14 Jun 2014 4:43:57 pm
381.Thirteen00Mon, 16 Jun 2014 10:34:11 am
382.quattro4Wed, 18 Jun 2014 5:44:32 pm
383.wevertjesWed, 18 Jun 2014 9:43:33 pm
384.sweetjoeThu, 19 Jun 2014 4:58:56 pm
385.maboscoFri, 20 Jun 2014 9:15:03 pm
386.geojorenTue, 24 Jun 2014 8:16:31 pm
387.VlevkeSat, 28 Jun 2014 10:27:16 am
388.JonabiekMon, 30 Jun 2014 6:39:18 pm
389.Anjer291Mon, 30 Jun 2014 8:46:03 pm
390.StimpyktTue, 1 Jul 2014 12:05:06 am
391.ferrojojoWed, 2 Jul 2014 2:08:20 pm
392.Oetie2Sat, 5 Jul 2014 8:45:36 pm
393.Kis1408Thu, 10 Jul 2014 9:57:08 pm
394.het sjotterkeThu, 10 Jul 2014 11:37:09 pm
395.kuipers.aTue, 22 Jul 2014 4:46:29 pm
396.JuAn7781Fri, 25 Jul 2014 2:30:40 pm
397.rednorbSat, 26 Jul 2014 4:53:56 pm
398.de Hamse visSun, 27 Jul 2014 7:51:35 pm
399.leroy405Tue, 29 Jul 2014 3:01:22 pm
400.Doubleg_82Tue, 29 Jul 2014 3:52:00 pm
401.Chake&YvesWed, 30 Jul 2014 8:17:11 am
402.metkraam20Thu, 31 Jul 2014 7:52:02 pm
403.lucvosSat, 2 Aug 2014 9:42:49 pm
404.delange001Mon, 4 Aug 2014 9:46:06 am
405.TerMoerkesMon, 4 Aug 2014 6:57:54 pm
406.crusherrMon, 4 Aug 2014 9:04:47 pm
407.7footgiantMon, 4 Aug 2014 10:10:04 pm
408.break54Thu, 7 Aug 2014 12:45:19 pm
409.Kievit74Thu, 7 Aug 2014 1:00:50 pm
410.MissedChaoticThu, 7 Aug 2014 11:24:49 pm
411.Feles LascivaSat, 9 Aug 2014 9:32:03 am
412.Brother WilliamTue, 12 Aug 2014 4:48:33 pm
413.Lighthouse777Thu, 14 Aug 2014 4:46:25 pm
414.benniedomThu, 14 Aug 2014 7:12:31 pm
415.Willem-JanSun, 17 Aug 2014 7:53:15 pm
416.Ann-HeinTue, 19 Aug 2014 11:19:01 am
417.The Happy'sTue, 19 Aug 2014 11:04:38 pm
418.*JoMo*Wed, 20 Aug 2014 9:54:25 am
419.gelaesgeertWed, 20 Aug 2014 2:47:01 pm
420.KoenGoosWed, 20 Aug 2014 7:19:36 pm
421.vlinder74Wed, 20 Aug 2014 8:48:36 pm
422.stofkoeThu, 21 Aug 2014 2:04:07 pm
423.VaderBESFri, 22 Aug 2014 3:20:04 pm
424.GeoFlowersMon, 25 Aug 2014 3:43:51 pm
425.snollebollekesTue, 26 Aug 2014 4:02:57 pm
426.KareltjeTue, 26 Aug 2014 9:29:04 pm
427.GeohunterVBTue, 2 Sep 2014 9:22:07 pm
428.De PlassiesTue, 2 Sep 2014 10:37:55 pm
429.erwinagnesWed, 3 Sep 2014 4:00:31 pm
430.Bulsara77Thu, 4 Sep 2014 12:56:12 am
431.MeullemMon, 8 Sep 2014 9:36:11 am
432.pietjepukkelTue, 9 Sep 2014 12:49:01 pm
433.Flippie FlinkFri, 12 Sep 2014 2:39:58 pm
434.JvR-GeoFri, 12 Sep 2014 10:14:06 pm
435.le sudisteWed, 17 Sep 2014 9:24:40 pm
436.volleymikeFri, 19 Sep 2014 11:43:53 am
437.De ploppertjesSun, 21 Sep 2014 3:27:01 pm
438.JMolsSun, 21 Sep 2014 8:58:05 pm
439.PEKA71Mon, 22 Sep 2014 8:00:28 pm
440.Kapitän Blaubär 78Thu, 25 Sep 2014 2:29:51 pm
441.Phil-DieFri, 26 Sep 2014 10:05:53 pm
442.lowa 65Sat, 27 Sep 2014 6:18:44 am
443.Team_SteCySun, 28 Sep 2014 6:43:55 pm
444.polderfamilyMon, 29 Sep 2014 9:59:27 am
445.AnB9Thu, 2 Oct 2014 12:10:52 pm
446.MaxvicSun, 5 Oct 2014 11:48:18 am
447.jobi44Sun, 5 Oct 2014 4:58:55 pm
448.NicketickSun, 5 Oct 2014 6:47:45 pm
449.Ver&LatWed, 8 Oct 2014 7:36:15 pm
450.countryboy1971Mon, 13 Oct 2014 12:57:00 pm
451.sweetlakecityTue, 14 Oct 2014 5:58:42 pm
452.testofanTue, 14 Oct 2014 6:51:31 pm
453.hermjoTue, 14 Oct 2014 9:30:52 pm
454.stef_anThu, 16 Oct 2014 9:21:55 pm
455.GwennyThu, 16 Oct 2014 11:10:45 pm
456.MilliMolliMon, 20 Oct 2014 12:36:11 pm
457.hetseskeTue, 21 Oct 2014 6:33:42 pm
458.rumo1Sat, 25 Oct 2014 11:56:05 pm
459.zappalodianWed, 29 Oct 2014 3:58:34 pm
460.Lies&&TomSun, 2 Nov 2014 9:36:14 pm
461.Kwak & BoemelTue, 4 Nov 2014 7:44:22 am
462.KoempelTue, 4 Nov 2014 8:42:54 am
463.mutrihFri, 7 Nov 2014 8:07:58 pm
464.moriske1Sun, 9 Nov 2014 11:45:57 am
465.Kilroy B.Sun, 9 Nov 2014 7:10:21 pm
466.thepro14Mon, 10 Nov 2014 2:17:25 pm
467.ibuzzeTue, 11 Nov 2014 4:11:56 pm
468.mapa05Wed, 12 Nov 2014 3:30:23 pm
469.MiseurThu, 13 Nov 2014 8:50:54 pm
470.de froggiesThu, 13 Nov 2014 11:28:24 pm
471.QNQFri, 14 Nov 2014 7:50:50 am
472.pigne_arollaFri, 14 Nov 2014 11:25:37 pm
473.Witte1Sun, 16 Nov 2014 10:05:18 pm
474.tomkat1971Mon, 17 Nov 2014 3:35:56 pm
475.freyke82Tue, 25 Nov 2014 1:31:41 pm
476.CrazyGekkoWed, 26 Nov 2014 1:45:55 pm
477.ZandbaarsMon, 1 Dec 2014 11:46:05 am
478.gaudiumWed, 3 Dec 2014 4:11:14 pm
479.DAVINKIWed, 3 Dec 2014 9:36:26 pm
480.MarkoLocoFri, 12 Dec 2014 3:31:49 pm
481.ikzentSat, 13 Dec 2014 12:41:44 pm
482.CruxkeSun, 14 Dec 2014 3:59:48 pm
483.destroj007Mon, 15 Dec 2014 4:07:50 pm
484.famvdpThu, 18 Dec 2014 10:19:17 pm
485.galiThu, 18 Dec 2014 10:20:26 pm
486.AirsharkIISun, 21 Dec 2014 4:17:33 am
487.sesamstraatploegThu, 25 Dec 2014 9:36:30 am
488.pollepijlThu, 25 Dec 2014 5:43:21 pm
489.jjt007Sun, 28 Dec 2014 12:25:55 pm
490.els_kevin_dritoSun, 28 Dec 2014 9:34:53 pm
491.Dolly1979Sun, 4 Jan 2015 10:38:20 pm
492.GeTiKa59Sun, 4 Jan 2015 11:02:04 pm
493.duifMon, 5 Jan 2015 10:38:56 pm
494.Renrew1968Tue, 6 Jan 2015 7:57:20 pm
495.dagtrippers8486Wed, 7 Jan 2015 11:24:51 am
496.Hammer of DoomWed, 7 Jan 2015 9:46:03 pm
497.Lindi14Fri, 9 Jan 2015 10:04:14 am
498.Trientje75Fri, 9 Jan 2015 1:40:08 pm
499.vloerhosteskeSat, 10 Jan 2015 1:24:39 pm
500.De GiebelgeitjesSun, 11 Jan 2015 4:55:20 pm
501.On7dcSat, 17 Jan 2015 3:27:48 pm
502.VW T2Mon, 26 Jan 2015 11:00:46 am
503.BulkieTue, 27 Jan 2015 9:38:56 am
504.jan972Sat, 31 Jan 2015 4:14:33 pm
505.rinag5Fri, 6 Feb 2015 7:22:45 pm
506.JoMaLoLiSun, 8 Feb 2015 12:13:02 pm
507.MarioAnMon, 9 Feb 2015 12:53:03 pm
508.RuMy2650Mon, 9 Feb 2015 12:56:17 pm
509.vesje49Mon, 9 Feb 2015 2:27:24 pm
510.Kare8384Sat, 14 Feb 2015 9:10:24 pm
511.Walker74Mon, 16 Feb 2015 10:16:49 pm
512.moddercrosserWed, 18 Feb 2015 7:40:17 pm
513.cuppy1963Fri, 20 Feb 2015 12:05:38 pm
514.4LinuxMon, 23 Feb 2015 6:55:41 pm
515.fr@ b.Wed, 25 Feb 2015 12:48:51 pm
516.A.A.T.R.Thu, 26 Feb 2015 12:32:57 pm
517.stoemperSat, 28 Feb 2015 2:11:17 pm
518.verstraete-latruweSun, 1 Mar 2015 5:37:36 pm
519.lipiboTue, 3 Mar 2015 1:11:30 pm
520.L EN LFri, 6 Mar 2015 7:23:25 pm
521.postduif56Fri, 6 Mar 2015 7:28:32 pm
522.dibo jenoFri, 6 Mar 2015 10:18:11 pm
523.tKlavertjeSat, 7 Mar 2015 11:45:33 pm
524.Team NikstjeMon, 9 Mar 2015 1:34:33 pm
525.eef13Mon, 9 Mar 2015 5:00:39 pm
526.Krikri28Tue, 10 Mar 2015 11:10:14 pm
527.HeeblumkeWed, 11 Mar 2015 2:53:59 pm
528.ronniepmvwSat, 14 Mar 2015 3:32:31 pm
529.AgentXLMon, 16 Mar 2015 1:25:51 pm
530.KesannyThu, 19 Mar 2015 10:10:34 am
531.plimkieThu, 19 Mar 2015 7:02:21 pm
532.soyoyastSat, 21 Mar 2015 8:54:47 am
533.SecretCaveMon, 23 Mar 2015 7:23:48 pm
534.RijklandMon, 30 Mar 2015 1:40:19 am
535.knoopsrWed, 1 Apr 2015 1:48:37 pm
536.PingolinWed, 1 Apr 2015 1:53:20 pm
537.chantheWed, 1 Apr 2015 6:44:51 pm
538.sauvillerTue, 7 Apr 2015 9:59:28 am
539.tonmar47Tue, 14 Apr 2015 10:07:27 pm
540.il imperiestroThu, 16 Apr 2015 10:26:58 pm
541.sloefke5Sun, 19 Apr 2015 9:16:51 pm
542.groep bellaMon, 27 Apr 2015 12:36:05 pm
543.Team WoubeMon, 27 Apr 2015 3:49:26 pm
544.NyxbugThu, 30 Apr 2015 3:52:10 pm
545.Matthias999Fri, 1 May 2015 7:55:31 pm
546.TZN40Sun, 3 May 2015 8:28:36 pm
547.wasserijsTue, 5 May 2015 8:24:09 am
548.dapastniWed, 6 May 2015 6:23:39 pm
549.pat_edSat, 9 May 2015 11:16:04 am
550.WorkOut2019Tue, 12 May 2015 5:16:37 pm
551.koperenkogelThu, 14 May 2015 10:47:13 pm
552.lr128247Sun, 17 May 2015 9:36:04 am
553.Jens VLMon, 25 May 2015 1:48:40 pm
554.jehan the walkingmanThu, 28 May 2015 3:23:18 pm
555.VicVonMon, 1 Jun 2015 8:58:17 pm
556.TingioTue, 2 Jun 2015 8:33:23 pm
557.TORIBEXSat, 6 Jun 2015 11:01:22 am
558.AnSonicSun, 7 Jun 2015 4:24:14 pm
559.pfisserThu, 11 Jun 2015 8:01:18 pm
560.PethiSat, 13 Jun 2015 2:29:12 pm
561.JacqAnMon, 15 Jun 2015 1:52:40 pm
562.Fi-LuMon, 15 Jun 2015 8:09:23 pm
563.WilfriedvpWed, 17 Jun 2015 10:09:16 pm
564.FastekeSun, 21 Jun 2015 11:18:29 am
565.svekke_cMon, 22 Jun 2015 12:40:21 pm
566.ChripaTue, 23 Jun 2015 3:31:12 pm
567.snoopyke21Sun, 28 Jun 2015 11:11:13 pm
568.cindywoefWed, 1 Jul 2015 8:23:20 pm
569.rheawoefFri, 3 Jul 2015 5:26:24 pm
570.gitert4Sat, 4 Jul 2015 9:15:51 pm
571.isbn84Sun, 5 Jul 2015 8:53:23 pm
572.patriekskeFri, 10 Jul 2015 9:52:01 pm
573.zottevlaaiMon, 13 Jul 2015 8:53:38 pm
574.MichelitisTue, 14 Jul 2015 1:40:52 am
575.Peter & KatrijnTue, 14 Jul 2015 11:51:25 am
576.GEOCACHTIMWed, 15 Jul 2015 1:35:53 pm
577.casiswaryaFri, 17 Jul 2015 10:03:56 pm
578.sentinel2004Sun, 19 Jul 2015 10:43:07 am
579.duikelaarSun, 19 Jul 2015 10:51:52 am
580.Roosje66Sun, 19 Jul 2015 12:50:35 pm
581.kipling2006Sun, 19 Jul 2015 1:13:39 pm
582.vestje52Sun, 19 Jul 2015 1:32:12 pm
583.Victor6FlyerSun, 19 Jul 2015 1:58:49 pm
584.E&PSSun, 19 Jul 2015 2:18:27 pm
585.denederlandsedaltonsSun, 19 Jul 2015 8:54:50 pm
586.Team HengerSun, 19 Jul 2015 9:04:26 pm
587.lingbeekMon, 20 Jul 2015 2:59:45 pm
588.Laura & JanTue, 21 Jul 2015 9:55:08 pm
589.wemmekeWed, 22 Jul 2015 10:23:16 pm
590.typooFri, 24 Jul 2015 10:18:52 pm
591.ezeltje01+grijzeduifSat, 25 Jul 2015 2:15:15 pm
592.BlackCookiesMon, 27 Jul 2015 4:47:56 pm
593.klokjeTue, 28 Jul 2015 6:52:25 pm
594.Docxkes5Wed, 29 Jul 2015 12:32:58 am
595.gied54Sat, 1 Aug 2015 9:22:55 pm
596.Dingetje71Sun, 2 Aug 2015 7:54:20 pm
597.Stef & KristelSun, 9 Aug 2015 6:13:53 pm
598.Veerle TTue, 18 Aug 2015 4:35:32 pm
599.jon.snow@Wed, 19 Aug 2015 12:33:13 pm
600.florsa1717Fri, 21 Aug 2015 8:49:29 am
601.saffletTue, 25 Aug 2015 3:24:39 pm
602.SjötWed, 26 Aug 2015 9:44:28 pm
603.brutal2103Thu, 27 Aug 2015 11:52:28 am
604.LambrafTue, 1 Sep 2015 11:55:06 pm
605.HekkieSun, 6 Sep 2015 9:12:42 pm
606.Night chick&GCCANDYThu, 10 Sep 2015 11:32:11 pm
607.kurtje13Sat, 12 Sep 2015 1:11:19 pm
608.bergenjeffryMon, 14 Sep 2015 2:40:59 am
609.bebewazaaWed, 16 Sep 2015 3:39:51 pm
610.reynartsThu, 17 Sep 2015 5:58:15 pm
611.Jansen en JanssenThu, 17 Sep 2015 9:35:07 pm
612.elpierroSat, 19 Sep 2015 11:39:02 am
613.modderpootjesMon, 28 Sep 2015 6:27:04 pm
614.mitch.croesWed, 30 Sep 2015 12:06:28 am
615.ejpwg en teaFri, 2 Oct 2015 10:05:44 am
616.Lieselotte06052016Fri, 2 Oct 2015 5:17:27 pm
617.sus.bertelsSun, 4 Oct 2015 2:23:10 pm
618.StijnRensSun, 4 Oct 2015 4:21:54 pm
619.Dreamteam2502Mon, 5 Oct 2015 3:27:40 pm
620.IvaliseTue, 6 Oct 2015 12:09:32 am
621.BeEvyTue, 6 Oct 2015 7:30:29 pm
622.SiedowaSat, 10 Oct 2015 9:05:49 pm
623.kevertjeSun, 11 Oct 2015 7:39:21 pm
624.caoutchoucTue, 13 Oct 2015 2:54:12 pm
625.botsbalFri, 16 Oct 2015 8:18:21 pm
626.Hassie8720Sun, 18 Oct 2015 1:01:27 pm
627.MardetTue, 20 Oct 2015 5:15:40 pm
628.ghekiWed, 21 Oct 2015 6:36:54 pm
629.ellilauwThu, 22 Oct 2015 8:24:18 pm
630.WaFiKriDiSat, 24 Oct 2015 11:12:58 pm
631.Nemo ZardixSat, 7 Nov 2015 9:45:48 pm
632.team_datoWed, 11 Nov 2015 2:06:16 pm
633.Verschueren LThu, 12 Nov 2015 8:11:19 pm
634.GreetgeSat, 14 Nov 2015 6:43:33 pm
635.l0vebirdiesSun, 15 Nov 2015 5:49:57 pm
636.infinity_mcTue, 17 Nov 2015 4:15:51 am
637.koenenleencasteleynTue, 17 Nov 2015 9:28:01 pm
638.team edvollegasWed, 18 Nov 2015 6:59:12 pm
639.roodmusThu, 19 Nov 2015 4:54:44 pm
640.FoezyMon, 23 Nov 2015 5:06:14 pm
641.EllenAdriaensenMon, 23 Nov 2015 5:23:09 pm
642.Nelson LordWed, 2 Dec 2015 1:40:33 pm
643.goldgrubeWed, 2 Dec 2015 2:34:41 pm
644.lien&jorenWed, 2 Dec 2015 7:37:48 pm
645.Reynders JPFri, 4 Dec 2015 2:37:26 pm
646.The_MazeRunnerMon, 7 Dec 2015 11:22:14 am
647.Lady LinnekeSun, 13 Dec 2015 11:26:33 am
648.ida oWed, 16 Dec 2015 3:50:41 pm
649.Familie De RonTue, 22 Dec 2015 8:25:01 pm
650.BartjeelsjeWed, 23 Dec 2015 1:08:08 pm
651.ozzy07Wed, 23 Dec 2015 3:21:06 pm
652.Bram & ElsSun, 27 Dec 2015 1:49:18 pm
653.daborTue, 29 Dec 2015 9:04:50 pm
654.McDuffie007Thu, 31 Dec 2015 2:24:58 pm
655.Team STVMon, 4 Jan 2016 3:43:28 pm
656.CaracalShanMon, 4 Jan 2016 10:47:52 pm
657.ams_eeWed, 6 Jan 2016 7:02:26 pm
658.MadDogJackWed, 6 Jan 2016 9:43:41 pm
659.jiske56Wed, 6 Jan 2016 10:57:56 pm
660.pascal2704Tue, 12 Jan 2016 5:07:26 pm
661.StuiterkuikenFri, 15 Jan 2016 9:59:05 am
662.bijthFri, 15 Jan 2016 11:21:04 am
663.delavriesWed, 20 Jan 2016 3:14:33 pm
664.colonelbThu, 21 Jan 2016 5:57:44 pm
665.de wolliesThu, 21 Jan 2016 5:58:45 pm
666.hemimaSun, 24 Jan 2016 4:30:18 pm
667.JolieusSun, 24 Jan 2016 8:40:29 pm
668.FreakjeFri, 29 Jan 2016 7:56:10 pm
669.WIGWIGWAMWAMSat, 30 Jan 2016 10:29:38 am
670.KimmetjeTue, 2 Feb 2016 1:54:59 pm
671.xalalojeWed, 3 Feb 2016 5:22:08 pm
672.jollyclubFri, 5 Feb 2016 8:32:10 pm
673.beverkeSat, 6 Feb 2016 1:27:16 pm
674.WiHa1106Sun, 7 Feb 2016 10:43:41 pm
675.DaCo1979Mon, 8 Feb 2016 10:30:37 pm
676.iTeeuwenWed, 10 Feb 2016 10:19:20 pm
677.Samn1Sat, 13 Feb 2016 11:26:17 pm
678.an_en_erikSat, 13 Feb 2016 11:29:17 pm
679.Hape & PitschaTue, 16 Feb 2016 6:10:44 pm
680.HarindaWed, 17 Feb 2016 10:15:59 pm
681.Klein KölleFri, 26 Feb 2016 8:26:42 pm
682.dedamesFri, 26 Feb 2016 9:27:48 pm
683.popfexTue, 1 Mar 2016 8:00:42 pm
684.Team FlintstonesWed, 2 Mar 2016 8:57:09 pm
685.zakagendaThu, 3 Mar 2016 12:43:35 am
686.joke18Tue, 8 Mar 2016 1:52:46 pm
687.Janne & GertFri, 11 Mar 2016 12:46:49 pm
688.GeoAraFri, 11 Mar 2016 8:15:26 pm
689.Team SpicySun, 13 Mar 2016 10:28:34 am
690.waksieTue, 15 Mar 2016 3:29:37 pm
691.the_fonzyWed, 16 Mar 2016 7:38:27 pm
692.steven.aThu, 17 Mar 2016 11:09:20 pm
693.andy086Wed, 23 Mar 2016 10:37:11 pm
694.margriet2Tue, 29 Mar 2016 4:17:44 pm
695.Rednax2004Wed, 30 Mar 2016 3:00:52 pm
696.nataliejacobsWed, 30 Mar 2016 11:09:57 pm
697.EveRan2013Thu, 31 Mar 2016 10:42:10 pm
698.DatuliFri, 1 Apr 2016 3:55:02 pm
699.katleenmarcoSun, 3 Apr 2016 5:20:23 pm
700.terpiesThu, 7 Apr 2016 5:22:16 pm
701.rode riddersFri, 8 Apr 2016 10:11:10 pm
702.OpaDusTue, 12 Apr 2016 10:51:05 am
703.GutikoliWed, 13 Apr 2016 12:57:45 pm
704.2PintenFri, 15 Apr 2016 10:03:45 pm
705.michaelcon1Sat, 16 Apr 2016 9:11:54 pm
706.jan_en_lutMon, 18 Apr 2016 11:27:00 pm
707.mr. muscleSun, 24 Apr 2016 8:31:21 am
708.Noch JemandSun, 24 Apr 2016 2:42:46 pm
709.YarkooHMon, 25 Apr 2016 11:08:46 pm
710.di&woodtrapperMon, 2 May 2016 2:32:50 pm
711.HapersMon, 2 May 2016 5:46:30 pm
712.TeamKnippeSun, 8 May 2016 3:11:49 pm
713.lifraTue, 10 May 2016 6:32:20 pm
714.2DSKSat, 14 May 2016 4:17:01 pm
715.MitijFri, 20 May 2016 5:07:05 pm
716.D&D1103Mon, 23 May 2016 10:32:42 pm
717.WilallMon, 23 May 2016 10:33:45 pm
718.Cinder1981Thu, 26 May 2016 9:41:53 pm
719.PeripateticiTue, 31 May 2016 11:51:22 pm
720.de kanaalmanWed, 8 Jun 2016 2:20:55 pm
721.omamarelMon, 27 Jun 2016 10:24:37 pm
722.Tuinkabouter79Thu, 30 Jun 2016 10:20:40 pm
723.topzoekertjeSun, 3 Jul 2016 9:09:50 pm
724.Patrick67.Fri, 8 Jul 2016 12:58:51 am
725.Running SandFri, 8 Jul 2016 9:52:28 am
726.bestplayer1000Sat, 9 Jul 2016 1:36:13 pm
727.Spanco&KippyTue, 12 Jul 2016 5:59:32 pm
728.Team DaajtWed, 13 Jul 2016 1:19:31 pm
729.Windkracht12Sun, 17 Jul 2016 2:16:41 pm
730.friso923Fri, 22 Jul 2016 3:46:14 pm
731.BasOpPadFri, 22 Jul 2016 10:11:30 pm
732.remokeFri, 22 Jul 2016 11:01:54 pm
733.golodhSat, 23 Jul 2016 4:58:05 pm
734.AwesoMeowSun, 24 Jul 2016 6:59:55 pm
735.PulpFactoryMon, 25 Jul 2016 8:14:27 pm
736.buffel71Thu, 28 Jul 2016 6:06:36 pm
737.mi&mi2004Mon, 1 Aug 2016 1:15:45 pm
738.Rufie0902Tue, 9 Aug 2016 2:27:47 pm
739.gerritvanwoerkomTue, 9 Aug 2016 10:34:48 pm
740.Daan43Sun, 14 Aug 2016 9:01:26 pm
741.DigiBobMon, 15 Aug 2016 10:47:26 am
742.pat2609Tue, 16 Aug 2016 8:03:49 pm
743.johannemieFri, 19 Aug 2016 8:35:26 pm
744.DykaSat, 20 Aug 2016 9:35:32 am
745.biebieSun, 21 Aug 2016 12:48:05 pm
746.Lady_Sabrina_&_CoSun, 21 Aug 2016 11:08:39 pm
747.Jelle-AnneliesSun, 28 Aug 2016 9:51:04 am
748.diatrickSun, 28 Aug 2016 11:46:56 am
749.SoemirMon, 29 Aug 2016 4:27:06 pm
750.kato3Tue, 30 Aug 2016 7:49:26 pm
751.Mathieu1979Wed, 31 Aug 2016 3:01:23 pm
752.DWX DeluxeWed, 31 Aug 2016 3:09:06 pm
753.BriSan.Thu, 1 Sep 2016 5:24:03 am
754.Dany 139Mon, 5 Sep 2016 12:27:08 pm
755.ArrayOfEmotionsThu, 29 Sep 2016 7:12:41 pm
756.Aga.Mem.NonMon, 3 Oct 2016 7:02:15 pm
757.paard185Sun, 9 Oct 2016 10:45:25 am
758.CrazyMuppetsSat, 15 Oct 2016 1:13:30 pm
759.smansieSat, 15 Oct 2016 9:12:03 pm
760.Voetbal SmurfThu, 20 Oct 2016 10:54:19 am
761.cach-u-crewFri, 21 Oct 2016 2:17:46 pm
762.kadeekesFri, 21 Oct 2016 6:19:36 pm
763.tcr1978Sat, 22 Oct 2016 12:07:42 pm
764.McDuvelWed, 26 Oct 2016 11:25:00 pm
765.rikske62Tue, 1 Nov 2016 11:48:30 am
766.BoltblueWed, 9 Nov 2016 12:03:31 pm
767.BVMJSun, 20 Nov 2016 8:42:21 pm
768.matti122Sun, 20 Nov 2016 11:13:01 pm
769.DaicootjeSat, 26 Nov 2016 11:46:41 am
770.plinMon, 28 Nov 2016 5:06:46 pm
771.zonnehoekSat, 3 Dec 2016 11:12:17 am
772.The Big CatsWed, 14 Dec 2016 10:08:54 am
773.LottyThu, 22 Dec 2016 2:50:57 pm
774.filip85Sun, 25 Dec 2016 12:00:19 pm
775.LavaMotjesWed, 28 Dec 2016 6:42:27 pm